THORAD AGENA D DEB, 42515

Orbit data source: Space-Track

THORAD AGENA D DEB, 42515 is space debris in SSO originally from a launch on Wed, 08 Apr 1970 UTC launched from the Air Force Western Test Range (AFWTR). Debris objects in space refer to the collection of defunct objects orbiting the Earth. Examples of debris include non-operational satellites, rocket bodies, and fragments generated from explosions, collisions, or faulty payload assembly.

Loading next visibility...
Identifier
42515, 1970-025RV
Orbit
SSO
Country
Flag of USUS
Related business
Manufacturer
Unknown
Mission
Spacecraft
Bus & Motor
Unknown
Mass
Unknown
Launch date (UTC)
1970-04-08 (56 years ago)
Launch vehicle
Unknown
Launch site
Air Force Western Test Range (AFWTR)
Object type
Payload
Rocket body
Debris
Shape & HBR
Unknown shape, 0.1 m
Radar Cross Section
Small (<0.1 m²)

Expand to show TLE details & history
Last TLE update: 3 days ago

TLE from 3 days ago
0 THORAD AGENA D DEB
1 42515U 70025RV  26032.63164316  .00000144  00000-0  28247-3 0  9999
2 42515  99.3832 331.6877 0042055  85.4921 275.1018 13.51455861601418
Epoch: 2026-02-01T15:09Z
TLE epoch observation values (Epoch: 2026-02-01T15:09:33.969Z)
Latitude
0.00004°
Longitude
-27.54235°
Altitude
1,067.051 km
Speed
7.32 km/s
True Right ascension
22h 06m 45s
True Declination
0° 00' 00"
Sunlit
Object was in daylight at epoch
Visualization orbit readout
Latitude
Unknown
Longitude
Unknown
Altitude
Unknown
Speed
Unknown
Apparent Right ascension
Unknown
Apparent Declination
Unknown
Sunlit
N/A
Visualization observer readout
Local Sidereal Time
21:26:09
Azimuth
Unknown
Elevation
Unknown
Doppler factor
Unknown
Orbital elements
Apogee altitude
1,095.489 km
Perigee altitude
1,032.892 km
Semi-major axis
7,442.327 km
Eccentricity
0.00421
Inclination
99.3832°
RAAN
331.6877°
Arg. of periapsis
85.4921°
True anomaly
274.62158°
Mean anomaly
275.1018°
Eccentric anomaly
274.86171°
Mean motion
3.38049 °/min
Orbital period
106.49 mins
BSTAR
0.00028247
Loading maneuver chart data...
Computing Atmospheric mass density...

Documentation

Showing up to 5 results
|